This demonstration page uses our WeatherBlox Daily Observations layout. Learn more.

Left ArrowRight Arrow

38.88101, -77.10428

Hourly Observations for May 6, 2016

Temp ( °F °C ) Dew Point ( °F °C ) Humidity (%) Winds ( mph kmh ) Pressure ( in mb ) Visibility ( mi km ) Precip ( " mm )
12:19 am 00:19 Cloudy 54 12.2 50 10 87 87 NNW 12 19 29.68 1005 10 16 0.00 0.00
12:52 am 00:52 Cloudy 54 12.2 50 10 87 87 NNW 9 15 29.67 1005 10 16 0.00 0.00
1:52 am 01:52 Cloudy 54 12.2 50 10 87 87 N 9 15 29.67 1005 10 16 0.00 0.00
2:52 am 02:52 Cloudy 54 12.2 49 9.4 83 83 N 12 19 29.66 1004 10 16 0.00 0.00
3:52 am 03:52 Cloudy 54 12.2 49 9.4 83 83 N 10 17 29.64 1004 10 16 0.00 0.00
4:52 am 04:52 Cloudy 55 12.8 49 9.4 80 80 NNW 10 17 29.65 1004 10 16 0.00 0.00
5:52 am 05:52 Cloudy 55 12.8 48 8.9 77 77 N 13 20 29.65 1004 10 16 0.00 0.00
6:06 am 06:06 Cloudy with Light Rain 54 12 48 9 82 82 N 10 17 29.65 1004 10 16 0.00 0.00
6:35 am 06:35 Cloudy with Rain 53 11.7 49 9.4 86 86 NNE 10 17 29.68 1005 5 8 0.00 0.03
6:45 am 06:45 Cloudy with Rain 53 11.7 50 10 89 89 NNE 10 17 29.68 1005 3 4 0.03 0.76
6:52 am 06:52 Cloudy with Rain 53 11.7 50 10 89 89 N 8 13 29.67 1005 3 5 0.05 1.27
7:04 am 07:04 Cloudy with Light Rain 54 12 50 10 88 88 N 8 13 29.68 1005 8 13 0.00 0.00
7:52 am 07:52 Cloudy with Light Rain 53 11.7 50 10 89 89 N 9 15 29.68 1005 8 13 0.07 1.78
8:52 am 08:52 Cloudy with Light Rain 53 11.7 50 10 89 89 N 10 17 29.68 1005 10 16 0.02 0.51
9:52 am 09:52 Cloudy with Light Rain 53 11.7 50 10 89 89 NNW 10 17 29.69 1005 5 8 0.06 1.52
10:52 am 10:52 Cloudy with Light Rain 54 12.2 51 10.6 90 90 NNW 13 20 29.69 1006 8 13 0.07 1.78
11:52 am 11:52 Cloudy with Light Rain 55 12.8 52 11.1 90 90 NNW 13 20 29.68 1005 10 16 0.06 1.52
12:47 pm 12:47 Cloudy with Heavy Rain 52 11 48 9 88 88 ENE 14 22 29.68 1005 3 4 0.12 3.05
12:52 pm 12:52 Cloudy with Rain 51 10.6 48 8.9 89 89 E 10 17 29.69 1005 3 5 0.14 3.56
1:52 pm 13:52 Cloudy with Rain 52 11.1 47 8.3 83 83 Calm 29.69 1005 6 10 0.10 2.54
2:45 pm 14:45 Cloudy with Light Rain 52 11 48 9 88 88 WSW 6 9 29.68 1005 5 8 0.00 0.00
2:52 pm 14:52 Cloudy with Light Rain 53 11.7 49 9.4 86 86 VRB 7 11 29.68 1005 5 8 0.06 1.52
3:07 pm 15:07 Cloudy with Light Rain 53 11.7 49 9.4 86 86 W 6 9 29.68 1005 8 13 0.01 0.25
3:52 pm 15:52 Cloudy with Light Rain 54 12.2 50 10 87 87 W 7 11 29.67 1005 10 16 0.02 0.51
4:41 pm 16:41 Cloudy with Light Rain 54 12.2 50 10 87 87 W 13 20 29.65 1004 10 16 0.00 0.03
4:52 pm 16:52 Cloudy with Light Rain 53 11.7 49 9.4 86 86 N 15 24 29.67 1005 5 8 0.01 0.25
5:52 pm 17:52 Cloudy with Light Rain 53 11.7 49 9.4 86 86 NNW 10 17 29.67 1005 10 16 0.12 3.05
6:12 pm 18:12 Cloudy with Light Rain 54 12 48 9 82 82 N 10 17 29.68 1005 10 16 0.00 0.00
6:52 pm 18:52 Cloudy with Light Rain 53 11.7 48 8.9 83 83 N 8 13 29.68 1005 10 16 0.00 0.03
7:52 pm 19:52 Cloudy 52 11.1 48 8.9 86 86 W 7 11 29.68 1005 10 16 0.00 0.03
8:35 pm 20:35 Cloudy 53 11.7 49 9.4 86 86 W 5 7 29.71 1006 10 16 0.00 0.00
8:52 pm 20:52 Cloudy with Mist and Fog 53 11.7 49 9.4 86 86 W 3 6 29.70 1006 5 8 0.00 0.00
9:02 pm 21:02 Cloudy 54 12 48 9 82 82 WNW 6 9 29.71 1006 10 16 0.00 0.00
9:43 pm 21:43 Cloudy with Drizzle 53 11.7 49 9.4 86 86 WNW 6 9 29.71 1006 9 14 0.00 0.03
9:52 pm 21:52 Cloudy with Drizzle 52 11.1 50 10 93 93 W 6 9 29.71 1006 8 13 0.00 0.03
10:00 pm 22:00 Cloudy with Drizzle 52 11 50 10 94 94 W 3 6 29.71 1006 5 8 0.00 0.00
10:18 pm 22:18 Cloudy with Drizzle 52 11 50 10 94 94 Calm 29.71 1006 5 8 0.00 0.00
10:24 pm 22:24 Cloudy with Drizzle 52 11 50 10 94 94 WSW 5 7 29.71 1006 5 8 0.00 0.00
10:33 pm 22:33 Cloudy with Drizzle 52 11.1 50 10 93 93 Calm 29.71 1006 6 10 0.00 0.03
10:42 pm 22:42 Cloudy with Drizzle 54 12 52 11 94 94 Calm 29.71 1006 6 10 0.00 0.00
10:52 pm 22:52 Cloudy with Drizzle 53 11.7 51 10.6 93 93 SW 5 7 29.72 1006 8 13 0.00 0.03
11:15 pm 23:15 Cloudy with Light Rain 53 11.7 50 10 89 89 W 7 11 29.71 1006 10 16 0.01 0.25
11:52 pm 23:52 Cloudy with Light Rain 53 11.7 50 10 89 89 W 6 9 29.71 1006 10 16 0.01 0.25

Powered by AerisWeather